Regional Weather Roundup
Issued by NWS

Home | Current Version | Previous Version | Graphics & Text | Print | Product List | Glossary On
Versions: 1 2 3 4 5 6 7 8 9 10 11 12 13 14 15 16 17 18 19 20 21 22 23 24 25 26 27 28 29 30 31 32 33 34 35 36 37 38 39 40 41 42 43 44 45 46 47 48 49 50
000
ASUS45 KSLC 172210
RWRUT

UTAH REGIONAL WEATHER ROUNDUP
NATIONAL WEATHER SERVICE SALT LAKE CITY UT
300 PM MST WED DEC 17 2014

UTZ001>011-023>025-172300-

NORTHERN UTAH

CITY           SKY/WX    TMP DP  RH WIND       PRES   REMARKS
BRIGHAM CITY   CLOUDY    41  29  64 S5        29.99S
HILL AFB       MOSUNNY   38  30  71 VRB5      29.97S WCI  35
LOGAN          CLOUDY    40  28  62 S3        29.96F
OGDEN          CLOUDY    41  30  65 W5        29.97S
PROVO AIRPORT  PTSUNNY   39  28  65 VRB3      29.97S
SALT LAKE CITY CLOUDY    40  31  70 NW3       29.98S
VERNAL         CLOUDY    27  23  85 N3        30.00F
WENDOVER       MOSUNNY   37  27  65 SE5       29.98S WCI  34
HEBER CITY     CLOUDY    41  23  48 SW9       29.93R
WEST JORDAN    CLOUDY    37  36  93 NW3       29.98S

$$

UTZ012>022-026-027-172300-

SOUTHERN/CENTRAL UTAH

CITY           SKY/WX    TMP DP  RH WIND       PRES   REMARKS
BLANDING       CLOUDY    32  32 100 CALM      30.02F
BRYCE CANYON   CLOUDY    32  26  78 W9        29.95S WCI  24
CEDAR CITY     CLOUDY    37  32  82 CALM      29.97S
DELTA          CLOUDY    39  27  61 SW6       29.98S
MILFORD        CLOUDY    43  32  65 S13       29.96S
MOAB/CYNLANDS  LGT RAIN  36  35  96 NW8       29.96S WCI  30
PRICE          PTSUNNY   37  21  52 CALM      29.95S
ST GEORGE      CLOUDY    48  34  57 W3        30.03S
KANAB          CLOUDY   N/A N/A N/A S6        30.04S

$$

REGIONAL REPORTS     COLORADO/ARIZONA

CITY           SKY/WX    TMP DP  RH WIND       PRES   REMARKS
CRAIG, CO      CLOUDY    29  26  89 W3        29.96S
GRAND JUNCTION LGT RAIN  37  35  92 NW6       29.95R WCI  32
RIFLE          CLOUDY    38  29  70 CALM      29.93S
MONTROSE       CLOUDY    42  28  57 N5        29.94S
CORTEZ         LGT SNOW  34  33  96 W7        29.97R FOG     WCI  28
PAGE, AZ       CLOUDY    41  36  82 NE5       29.99S
GRAND CANYON   LGT SNOW  33  33 100 CALM      30.01S VSB 1
KINGMAN        CLOUDY    46  40  79 SW13      30.02S
FLAGSTAFF      FLURRIES  33  30  88 SW10      30.01S WCI  25

$$

REGIONAL REPORTS    NEVADA/IDAHO/WYOMING

CITY           SKY/WX    TMP DP  RH WIND       PRES   REMARKS
LAS VEGAS, NV  CLOUDY    54  38  54 VRB3      29.97S
ELY            CLOUDY    36  22  56 W12       29.95S WCI  28
ELKO           CLOUDY    28  26  92 CALM      29.96S
POCATELLO, ID  MOSUNNY   39  32  76 NE6       29.97F WCI  35
BURLEY         SUNNY     42  29  59 NE8       29.94F
EVANSTON, WY   CLOUDY    35  20  54 W8        29.94R WCI  29
ROCK SPRINGS   MOSUNNY   27  18  69 CALM      29.95S
KEMMERER       CLOUDY    34  19  55 W9        29.94R WCI  26

$$


USA.gov is the U.S. government's official web portal to all federal, state and local government web resources and services.